Preview of NWS' New Version of Forecast
This preview is not operational and should not be used for support decisions.

Regional Weather Roundup (RWR)

Issued by National Weather Service (NWS)

                            
000
ASUS45 KABQ 230510
RWRNM 
NEW MEXICO REGIONAL WEATHER ROUNDUP
NATIONAL WEATHER SERVICE ALBUQUERQUE NM
1000 PM MST FRI FEB 22 2019

NOTE: "FAIR" MEANS FEW OR NO CLOUDS BELOW 12,000 FEET AGL WITH NO
       SIGNIFICANT WEATHER OR OBSTRUCTIONS TO VISION.

      THIS PRODUCT IS RELEASED AS TWO VERSIONS.  ONE VERSION NEAR
      THE TOP OF THE HOUR CONTAINING PRELIMINARY DATA FROM ALBUQUERQUE
      AND OTHER STATIONS.  A FINAL VERSION WITH ADDITIONAL DATA IS 
      ISSUED ABOUT 10 MINUTES AFTER THE HOUR.
 
NMZ501-503-504-510>518-230600-
NORTHWEST PLATEAU/NORTHCENTRAL MOUNTAINS
  
CITY           SKY/WX    TMP DP  RH WIND       PRES   REMARKS
FARMINGTON     LGT SNOW  29  28  96 N5        29.74S FOG     WCI  24  
LOS ALAMOS     SNOW      27  27 100 NE7       29.71F VSB 1/2 WCI  19  
SANTA FE       LGT SNOW  29  27  92 E6        29.69F FOG     WCI  23  
TAOS           LGT SNOW  27  25  92 S6        29.75F FOG     WCI  20  
ANGEL FIRE     LGT SNOW  24  19  83 S3G16     29.70R                  

$$
NMZ402-403-502-505>509-230600-
WESTCENTRAL MOUNTAINS/SOUTHWEST MOUNTAINS
  
CITY           SKY/WX    TMP DP  RH WIND       PRES   REMARKS
GALLUP         FLURRIES  24  21  88 SW10      29.80R WCI  14          
GRANTS         FLURRIES  27  18  69 NW14G24   29.80R WCI  16          
SILVER CITY    CLOUDY    28  23  79 W20G25    29.92R WCI  15          

$$
NMZ407-409-411-412-230600-
SOUTHERN DESERTS
  
CITY           SKY/WX    TMP DP  RH WIND       PRES   REMARKS
DEMING         FAIR      32  28  85 W15       29.96R WCI  22          
LAS CRUCES     FAIR      34  32  92 W17       29.94R WCI  23          
HOLLOMAN AFB   CLOUDY    39  31  73 SW12G24   29.88R WCI  32          
ALAMOGORDO     FAIR      39  32  75 MISG      29.87R                  
T OR C         FAIR      34  20  56 W9        29.84R WCI  27          

$$
NMZ519>523-230600-
CENTRAL VALLEYS/CENTRAL HIGHLANDS
  
CITY           SKY/WX    TMP DP  RH WIND       PRES   REMARKS
ALBUQUERQUE    FOG       31  30  96 SW9       29.79R VSB 1   WCI  23  
DOUBLE EAGLE   CLOUDY    28  28  99 SW8       29.78R FOG     WCI  20  
MORIARTY ARPT  CLOUDY    31  31 100 CALM      29.75S                  
CLINES CORNERS LGT SNOW  26  24  92 W8        29.70F FOG     WCI  18  
BELEN          CLOUDY    32  32 100 SW3       29.82R                  
SOCORRO        CLOUDY    32  31  93 W3        29.82S                  

$$
NMZ524>526-539-540-230600-
SOUTHCENTRAL MOUNTAINS
  
CITY           SKY/WX    TMP DP  RH WIND       PRES   REMARKS
RUIDOSO        NOT AVBL                                               

$$
NMZ527>531-230600-
NORTHEAST HIGHLANDS/NORTHEAST PLAINS
  
CITY           SKY/WX    TMP DP  RH WIND       PRES   REMARKS
LAS VEGAS      LGT SNOW  31  26  82 W30G37    29.67R WCI  16          
RATON          LGT SNOW  34  29  82 S15G30    29.65R WCI  24          
CLAYTON        FOG       35  35 100 S14       29.70S VSB 1/4 WCI  26  

$$
NMZ532>537-230600-
EASTCENTRAL PLAINS
  
CITY           SKY/WX    TMP DP  RH WIND       PRES   REMARKS
SANTA ROSA     LGT RAIN  35  34  93 W14G23    29.74R WCI  26          
TUCUMCARI      CLOUDY    49  36  61 S23G29    29.66S                  
CANNON AFB     LGT RAIN  41  37  87 E8        29.72F                  
CLOVIS AIRPORT LGT RAIN  40  38  93 CALM      29.73S                  

$$
NMZ028-029-538-230600-
SOUTHEAST PLAINS
  
CITY           SKY/WX    TMP DP  RH WIND       PRES   REMARKS
ROSWELL        MOCLDY    52  31  44 W25G35    29.71R                  
ARTESIA        FAIR      52  27  37 MISG      29.72R                  
CARLSBAD       FAIR      49  29  46 W41G51    29.72R                  
HOBBS          CLOUDY    48  45  87 VRB5G12   29.75R                  


$$